Home > Weather > Redmond > Past weeks

Flag for USA Past Weather in Redmond, Washington, USA — Yesterday and Last 2 Weeks

Now
82 °F

Sunny.


Feels Like: 81 °F
Forecast: 60 / 85 °F
Wind: 8 mph from West

Location: Seattle Boeing Field

Current Time: Aug 24, 2016 at 8:02:37 PM

Latest Report: Aug 24, 2016 at 6:53 PM


Visibility: 10 mi

Pressure: 30.11 "Hg

Humidity: 40%

Dew Point: 55 °F

Location of RedmondLocation

Past Weather in Redmond — Graph

°F

Redmond Temperature Yesterday

Maximum temperature yesterday: 79 °F (at 4:53 PM)
Minimum temperature yesterday: 55 °F (at 6:53 AM)
Average temperature yesterday: 67 °F

High & Low Weather Summary for the Past Weeks

 TemperatureHumidityPressure
High95 °F (Aug 19, 4:53 PM)90% (Aug 16, 6:53 AM)30.23 "Hg (Aug 16, 6:53 AM)
Low55 °F (Aug 23, 6:53 AM)14% (Aug 22, 7:53 AM)29.77 "Hg (Aug 20, 7:53 PM)
Average71 °F58%30.03 "Hg
* Reported Aug 9 6:53 PM — Aug 24 6:53 PM, Redmond, Weather by CustomWeather, © 2016

Note: Actual official high and low records may vary slightly from our data, if they occured in-between our weather recording intervals... More about our weather records

Advertising

Redmond Weather History for the Previous 24 Hours

Scroll right to see more
 ConditionsComfort  
Time TempWeatherWind HumidityBarometerVisibility
6:53 PM
Wed, Aug 24
82 °FSunny.8 mph40%30.11 "Hg10 mi
5:53 PM80 °FPassing clouds.9 mph41%30.11 "Hg10 mi
4:53 PM82 °FPassing clouds.20 mph40%30.14 "Hg10 mi
3:53 PM81 °FSunny.14 mph39%30.17 "Hg10 mi
2:53 PM81 °FSunny.14 mph39%30.17 "Hg10 mi
1:53 PM79 °FSunny.12 mph44%30.17 "Hg10 mi
12:53 PM75 °FSunny.10 mph50%30.19 "Hg10 mi
11:53 AM75 °FPassing clouds.9 mph50%30.21 "Hg10 mi
10:53 AM72 °FSunny.6 mph55%30.23 "Hg10 mi
9:53 AM68 °FSunny.7 mph63%30.23 "Hg10 mi
8:53 AM61 °FSunny.8 mph78%30.23 "Hg10 mi
7:53 AM57 °FSunny.5 mph90%30.22 "Hg10 mi
6:53 AM57 °FClear.6 mph90%30.20 "Hg10 mi
5:53 AM57 °FClear.6 mph90%30.20 "Hg10 mi
4:53 AM59 °FClear.No wind84%30.19 "Hg10 mi
3:53 AM61 °FClear.No wind78%30.18 "Hg10 mi
2:53 AM61 °FClear.No wind78%30.18 "Hg10 mi
1:53 AM64 °FClear.No wind73%30.18 "Hg10 mi
12:53 AM64 °FClear.No wind73%30.18 "Hg10 mi
11:53 PM
Tue, Aug 23
65 °FClear.No wind70%30.18 "Hg10 mi
10:53 PM68 °FClear.6 mph57%30.18 "Hg10 mi
9:53 PM68 °FPassing clouds.7 mph57%30.16 "Hg10 mi
8:53 PM75 °FPassing clouds.8 mph50%30.14 "Hg10 mi
Weather by CustomWeather, © 2016

See weather overviewHow to use our weather pages